EW1392 Weather Reports


Display with metric or nautical units.
time (UTC)temp
F
wind
direction
speed
MPH
gust
MPH
rain 1hr
in
rain 24hr
in
rain mn
in
humidity
%
barometer
mb
20260906020037 54 247 0.0 0.0 0.00 0.02 0.02 93 1016.5
20260906014537 54 247 0.0 0.0 0.00 0.02 0.02 93 1016.4
20260906013036 55 247 0.0 0.0 0.00 0.02 0.02 94 1016.3
20260906011540 55 247 0.0 0.0 0.00 0.02 0.02 94 1016.3
20260906010037 55 247 0.0 0.0 0.01 0.02 0.02 93 1016.3
20260906004534 55 247 0.0 0.0 0.01 0.02 0.02 92 1016.1
20260906003034 55 247 0.0 0.0 0.01 0.02 0.02 92 1016.0
20260906001533 56 247 0.0 0.0 0.01 0.02 0.02 92 1016.3
20260906000033 56 247 0.0 0.0 0.00 0.01 0.01 89 1016.6
20260905234533 56 247 0.0 0.0 0.01 0.01 0.01 88 1016.5
20260905233035 58 247 0.0 0.0 0.01 0.01 0.01 85 1016.4
20260905231532 60 247 0.0 0.0 0.01 0.01 0.01 81 1016.2
20260905230033 64 247 0.0 0.0 0.01 0.01 0.01 74 1016.0
20260905224542 66 247 0.0 2.0 0.00 0.00 0.00 55 1015.9
20260905223026 65 218 0.0 3.0 0.00 0.00 0.00 52 1016.0
20260905221522 64 10 0.0 2.0 0.00 0.00 0.00 55 1016.2
20260905220020 63 227 0.0 0.0 0.00 0.00 0.00 65 1016.5
20260905214519 62 227 0.0 0.0 0.00 0.00 0.00 68 1016.7
20260905213018 62 227 0.0 0.0 0.00 0.00 0.00 73 1016.7
20260905211517 62 227 0.0 0.0 0.00 0.00 0.00 64 1016.9
20260905210016 62 227 0.0 2.0 0.00 0.00 0.00 60 1017.0
20260905204519 61 360 0.0 0.0 0.00 0.00 0.00 66 1017.1
20260905203015 62 360 0.0 0.0 0.00 0.00 0.00 67 1017.0
20260905201513 61 360 0.0 0.0 0.00 0.00 0.00 67 1017.1
20260905200012 61 5 0.0 0.0 0.00 0.00 0.00 71 1017.2
20260905194509 60 5 0.0 0.0 0.00 0.03 0.00 72 1017.3
20260905193009 59 5 0.0 0.0 0.00 0.03 0.00 67 1017.4
20260905191503 58 5 0.0 0.0 0.00 0.03 0.00 70 1017.6
20260905190001 58 5 0.0 1.0 0.00 0.03 0.00 73 1017.7
20260905184601 56 5 0.0 1.0 0.00 0.03 0.00 74 1017.9
20260905183057 54 5 0.0 0.0 0.00 0.03 0.00 79 1018.0
20260905181603 53 5 0.0 0.0 0.00 0.03 0.00 82 1018.3
20260905180044 51 5 0.0 0.0 0.00 0.03 0.00 87 1018.3
20260905174549 50 5 0.0 0.0 0.00 0.03 0.00 92 1018.4
20260905173038 49 5 0.0 0.0 0.00 0.03 0.00 94 1018.4
20260905171542 48 5 0.0 0.0 0.00 0.03 0.00 95 1018.6
20260905170034 48 5 0.0 0.0 0.00 0.03 0.00 97 1018.6
20260905164535 47 5 0.0 0.0 0.00 0.03 0.00 98 1018.7
20260905163028 46 5 0.0 0.0 0.00 0.03 0.00 98 1018.6
20260905161526 45 5 0.0 0.0 0.00 0.03 0.00 98 1018.7
20260905160031 43 5 0.0 0.0 0.00 0.03 0.00 98 1018.7
20260905154519 41 5 0.0 0.0 0.00 0.03 0.00 98 1018.6
20260905153022 39 5 0.0 0.0 0.00 0.03 0.00 98 1018.8
20260905151518 38 5 0.0 0.0 0.00 0.03 0.00 98 1018.9
20260905150017 36 5 0.0 0.0 0.00 0.03 0.00 97 1018.9
20260905144516 35 5 0.0 0.0 0.00 0.04 0.00 97 1018.8
20260905143014 35 5 0.0 0.0 0.00 0.04 0.00 96 1018.7
20260905141513 35 5 0.0 0.0 0.00 0.04 0.00 96 1018.5
20260905140011 35 5 0.0 0.0 0.00 0.04 0.00 96 1018.3
20260905134509 35 5 0.0 0.0 0.00 0.05 0.00 95 1018.2
20260905133010 36 5 0.0 0.0 0.00 0.05 0.00 96 1018.2
20260905131507 36 5 0.0 0.0 0.00 0.05 0.00 95 1018.3
20260905130006 36 5 0.0 0.0 0.00 0.05 0.00 95 1018.1
20260905124505 36 5 0.0 0.0 0.00 0.07 0.00 95 1018.1
20260905123004 36 5 0.0 0.0 0.00 0.07 0.00 95 1018.1
20260905121503 37 5 0.0 0.0 0.00 0.07 0.00 95 1017.9
20260905120002 37 5 0.0 0.0 0.00 0.07 0.00 95 1018.1
20260905114601 37 5 0.0 0.0 0.00 0.09 0.00 95 1018.0
20260905113059 37 5 0.0 0.0 0.00 0.09 0.00 95 1017.8
20260905111610 37 5 0.0 0.0 0.00 0.09 0.00 95 1017.7
20260905110100 37 5 0.0 0.0 0.00 0.09 0.00 95 1017.7
20260905104555 38 5 0.0 0.0 0.00 0.13 0.00 95 1017.6
20260905103054 38 5 0.0 0.0 0.00 0.13 0.00 95 1017.5
20260905101551 38 5 0.0 0.0 0.00 0.13 0.00 95 1017.6
20260905100053 38 5 0.0 0.0 0.00 0.13 0.00 94 1017.5
20260905094549 38 5 0.0 0.0 0.00 0.20 0.00 94 1017.5
20260905093047 39 5 0.0 0.0 0.00 0.20 0.00 94 1017.3
20260905091614 39 5 0.0 0.0 0.00 0.20 0.00 94 1017.2
20260905090042 39 5 0.0 0.0 0.00 0.20 0.00 94 1017.1
20260905084541 40 5 0.0 0.0 0.00 0.28 0.00 94 1017.1
20260905083040 40 5 0.0 0.0 0.00 0.28 0.00 94 1017.0
20260905081537 40 5 0.0 0.0 0.00 0.28 0.00 94 1016.9
20260905080047 41 5 0.0 0.0 0.00 0.28 0.00 94 1016.8
20260905074534 41 5 0.0 0.0 0.00 0.28 0.00 94 1016.7
20260905073032 41 5 0.0 0.0 0.00 0.28 0.00 94 1016.6
20260905071530 42 5 0.0 0.0 0.00 0.28 0.00 94 1016.4
20260905070027 42 5 0.0 0.0 0.00 0.28 0.00 93 1016.4
20260905064526 42 5 0.0 0.0 0.00 0.28 0.28 93 1016.2
20260905063025 43 5 0.0 0.0 0.00 0.28 0.28 93 1016.1
20260905061524 43 5 0.0 0.0 0.00 0.28 0.28 92 1016.1
20260905060024 44 5 0.0 0.0 0.00 0.28 0.28 92 1016.1
20260905054523 44 5 0.0 0.0 0.00 0.28 0.28 92 1016.0
20260905053022 45 5 0.0 0.0 0.00 0.28 0.28 91 1016.0
20260905051525 45 5 0.0 0.0 0.00 0.28 0.28 91 1015.9
20260905050026 46 5 0.0 0.0 0.00 0.28 0.28 90 1015.8
20260905044526 46 5 0.0 0.0 0.00 0.28 0.28 90 1015.9
20260905043025 47 5 0.0 0.0 0.00 0.28 0.28 89 1015.9
20260905041520 48 5 0.0 0.0 0.00 0.28 0.28 88 1015.8
20260905040017 49 5 0.0 0.0 0.00 0.28 0.28 87 1015.6
20260905034519 49 5 0.0 0.0 0.00 0.28 0.28 86 1015.4
20260905033028 50 5 0.0 0.0 0.00 0.28 0.28 84 1015.3
20260905031514 52 5 0.0 0.0 0.00 0.28 0.28 81 1015.2
20260905030022 53 5 0.0 0.0 0.00 0.28 0.28 79 1015.0
20260905024512 54 5 0.0 0.0 0.00 0.28 0.28 78 1014.7
20260905023010 56 5 0.0 0.0 0.00 0.28 0.28 74 1014.7
20260905021509 58 5 0.0 0.0 0.00 0.28 0.28 71 1014.7